Location: Arbon
(43.0005°N, 0.7472°E)
Time: 06:12:35
(UTC+00:00)

Vanguard 2 Rocket - Pass Details

Date: 20 June 2021
Orbit: 554 x 3325 km, 32.9° (Epoch: 26 July)

Event Time Altitude Azimuth Distance (km) Brightness Sun altitude
Rises 23:18:33 0° 273° (W) 6,949 11.6 -22.9°
Reaches altitude 10° 23:24:01 10° 268° (W) 5,610 11.0 -23.1°
Maximum altitude 23:37:58 41° 207° (SSW) 2,655 8.8 -23.4°
Enters shadow 23:40:49 36° 176° (S) 2,588 8.6 -23.4°
